#timestamp,LO_Frequency,Hit 
1504706415.3,286046999.8,N
1504706435.1,286046999.8,N
1504706455.9,286047001.9,N
1504706475.7,286047000.5,N
1504706495.5,286047001.5,N
1504706515.3,286047002.4,N
1504706535.2,286046999.2,N
1504706555.0,286047002.7,N
1504706555.9,286047002.7,N
1504706575.7,286047004.0,N
1504706595.6,286047000.8,N
1504706615.4,286046999.1,N
1504706635.2,286046999.4,N
1504706655.1,286046998.0,N
1504706656.0,286046998.0,N
1504706675.8,286046992.5,N
1504706695.6,286046992.0,N
1504706715.5,286046994.4,N
1504706735.3,286046996.3,N
1504706755.1,286046991.8,N
1504706775.9,286046991.7,N
1504706795.7,286046990.5,N
1504706815.5,286046990.5,N
1504706835.4,286046994.6,N
1504706855.2,286046997.2,N
1504706875.0,286046997.2,N
1504706875.9,286046997.2,N
1504706895.8,286046994.6,N
1504706915.6,286046992.8,N
1504706935.4,286046989.3,N
1504706955.2,286046988.7,N
1504706975.1,286046992.6,N
1504706976.0,286046992.6,N
1504706995.8,286046993.2,N
1504707015.6,286046991.6,N
1504707035.5,286046988.7,N
1504707055.3,286046991.5,N
1504707075.1,286046991.2,N
1504707095.9,286046992.5,N
1504707115.7,286046993.7,N
1504707135.5,286046993.6,N
1504707155.4,286046996.3,N
1504707175.2,286046995.0,N
1504707195.0,286046995.6,N
1504707195.9,286046995.6,N
1504707215.8,286046995.2,N
1504707235.6,286046996.9,N
1504707255.4,286046996.6,N
1504707275.3,286046999.0,N
1504707295.1,286046996.6,N
1504707296.0,286046996.6,N
1504707315.8,286046999.1,N
1504707335.7,286047000.9,N
1504707355.5,286047000.6,N
1504707375.3,286047001.1,N
1504707395.1,286046997.2,N
1504707415.9,286046990.2,N
1504707435.7,286046988.5,P
1504707455.6,286046995.6,N
1504707475.4,286046994.8,N
1504707495.2,286046996.0,N
1504707515.0,286046997.4,N
1504707515.9,286046997.4,N
1504707535.8,286046999.5,N
1504707555.6,286047002.1,N
1504707575.4,286047002.5,N
1504707595.3,286047001.9,N
1504707615.1,286047002.1,N
1504707635.8,286047002.0,N
1504707655.7,286047002.1,N
1504707675.5,286047002.0,N
1504707695.3,286047000.1,N
1504707715.2,286046997.9,N
1504707735.9,286046993.9,N
1504707755.7,286046994.4,N
1504707775.6,286046997.9,N
1504707795.4,286046995.3,N
1504707815.2,286046995.0,N
1504707835.0,286046993.4,N
1504707835.9,286046993.4,N
1504707855.8,286046988.5,P
1504707875.6,286046992.7,N
1504707895.5,286046990.9,N
1504707915.3,286046991.9,N
1504707935.1,286046992.4,N
1504707955.8,286046992.5,N
1504707975.7,286046991.2,P
1504707995.5,286046998.0,P
1504708015.4,286046997.3,N
1504708035.2,286046997.3,N
1504708055.0,286046996.3,N
1504708055.9,286046996.3,N
1504708075.8,286046991.9,P
1504708095.6,286047002.5,N
1504708115.4,286047003.0,N
1504708135.3,286047006.2,N
1504708155.1,286047009.1,N
1504708156.0,286047009.1,N
1504708175.8,286047008.4,N
1504708195.6,286047006.9,N
1504708215.5,286047001.5,N
1504708235.3,286047001.1,N
1504708255.1,286046999.9,N
1504708275.9,286047002.7,N
1504708295.7,286046998.4,N
1504708315.5,286046997.4,N
1504708335.4,286046999.6,N
1504708355.2,286047002.7,N
1504708375.0,286046999.7,N
1504708375.9,286046999.7,N
1504708395.8,286047003.9,N
1504708415.6,286047003.5,N
1504708435.4,286047006.9,N
1504708455.3,286047010.5,N
1504708475.1,286047010.8,N
1504708476.0,286047010.8,N
1504708495.8,286047010.7,N
1504708515.7,286047010.2,N
1504708535.5,286047006.0,N
1504708555.3,286047001.7,N
1504708575.1,286047001.9,N
1504708595.9,286046999.7,N
1504708615.7,286046998.4,N
1504708635.5,286046998.1,N
1504708655.4,286046997.0,N
1504708675.2,286046998.7,N
1504708695.0,286047000.5,N
1504708695.9,286047000.5,N
1504708715.8,286047003.1,N
1504708735.6,286047001.4,N
1504708755.4,286047002.0,N
1504708775.3,286047003.7,N
1504708795.1,286047004.5,N
1504708796.0,286047004.5,N
1504708815.8,286047005.8,N
1504708835.7,286047005.7,N
1504708855.5,286047003.7,N
1504708875.3,286047004.2,N
1504708895.1,286047004.9,N
1504708915.9,286047005.7,N
1504708935.7,286047002.1,N
1504708955.6,286047000.4,N
1504708975.4,286046999.3,N
1504708995.2,286046996.1,N
1504709015.1,286046995.8,N
1504709016.0,286046995.8,N
1504709035.8,286046996.9,N
1504709055.6,286047000.8,N
1504709075.4,286047000.6,N
1504709095.3,286046999.8,N
1504709115.1,286047001.2,N
1504709135.8,286046996.1,N
1504709155.7,286046993.3,N
1504709175.5,286046995.8,N
1504709195.3,286046996.6,N
1504709215.2,286046999.1,N
1504709235.9,286046996.7,N
1504709255.7,286047000.8,N
1504709275.6,286046995.1,N
1504709295.4,286046995.2,N
1504709315.2,286046995.7,N
1504709335.1,286046997.0,N
1504709336.0,286046997.0,N
1504709355.8,286046998.7,N
1504709375.6,286046998.8,N
1504709395.5,286047002.0,N
1504709415.3,286047003.5,N
1504709435.1,286047004.3,N
1504709455.8,286047000.3,N
1504709475.7,286047002.3,N
1504709495.5,286046998.2,N
1504709515.3,286046993.8,N
1504709535.2,286046995.4,N
1504709555.9,286046995.6,N
1504709575.7,286046998.2,N
1504709595.6,286046996.7,N
1504709615.4,286046999.1,N
1504709635.2,286046997.2,N
1504709655.1,286046994.1,N
1504709656.0,286046994.1,N
1504709675.8,286046992.6,N
1504709695.6,286046992.7,N
1504709715.5,286046995.2,N
1504709735.3,286046998.3,N
1504709755.1,286047000.4,N
1504709775.9,286047002.7,N
1504709795.7,286047003.4,N
1504709815.5,286047003.6,N
1504709835.3,286047003.2,N
1504709855.2,286047002.0,N
1504709875.0,286046997.2,N
1504709875.9,286046997.2,N
1504709895.7,286046995.7,N
1504709915.6,286046993.7,N
1504709935.4,286046994.9,N
1504709955.2,286046995.6,N
1504709975.1,286046999.2,N
1504709976.0,286046999.2,N
1504709995.8,286046993.4,N
